BAW67N EHAM-EDDS

Flight info

Callsign BAW67N
Flight time 0h 47m
Altitude 35000
Route EDUPO Z739 MISGO DCT DOJOH DCT DODEN DCT TABUM DCT FOLWU DCT UBENO N850 KRH T128 BADSO BADSO2A
Aircraft A319/M-SDE3FGHIRWY/LB1

Departure

Time 2026-05-07 20:52
Airport Amsterdam Airport Schiphol (EHAM)

Arrival

Time 2026-05-07 21:39
Airport Stuttgart Airport (EDDS)
Time Latitude Longitude Altitude Speed Heading
2026-05-07 20:24 52.30896 4.77367 -2 ft 0 kts
2026-05-07 20:40 52.30894 4.77366 -2 ft 2 kts
2026-05-07 20:40 52.30872 4.77364 -2 ft 4 kts 12°
2026-05-07 20:41 52.30849 4.77348 -2 ft 4 kts 48°
2026-05-07 20:41 52.30840 4.77318 -2 ft 1 kts 93°
2026-05-07 20:41 52.30841 4.77310 -2 ft 0 kts 93°
2026-05-07 20:44 52.30840 4.77311 -2 ft 1 kts 93°
2026-05-07 20:44 52.30839 4.77340 -2 ft 5 kts 94°
2026-05-07 20:44 52.30836 4.77413 -2 ft 8 kts 95°
2026-05-07 20:44 52.30833 4.77517 -2 ft 10 kts 89°
2026-05-07 20:45 52.30876 4.77607 -2 ft 11 kts 13°
2026-05-07 20:45 52.30964 4.77616 -2 ft 14 kts
2026-05-07 20:45 52.31072 4.77626 -2 ft 17 kts
2026-05-07 20:45 52.31198 4.77638 -2 ft 20 kts
2026-05-07 20:46 52.31340 4.77651 -2 ft 22 kts
2026-05-07 20:46 52.31485 4.77603 -2 ft 20 kts 321°
2026-05-07 20:46 52.31565 4.77454 -2 ft 17 kts 299°
2026-05-07 20:46 52.31576 4.77269 -3 ft 17 kts 266°
2026-05-07 20:47 52.31569 4.77086 -3 ft 16 kts 266°
2026-05-07 20:47 52.31563 4.76906 -2 ft 17 kts 267°
2026-05-07 20:47 52.31557 4.76697 -2 ft 18 kts 266°
2026-05-07 20:47 52.31548 4.76476 -2 ft 21 kts 267°
2026-05-07 20:48 52.31541 4.76230 -2 ft 18 kts 266°
2026-05-07 20:48 52.31533 4.76011 -2 ft 21 kts 266°
2026-05-07 20:48 52.31524 4.75762 -2 ft 23 kts 266°
2026-05-07 20:48 52.31514 4.75485 -2 ft 26 kts 266°
2026-05-07 20:49 52.31503 4.75182 -3 ft 27 kts 268°
2026-05-07 20:49 52.31494 4.74885 -2 ft 25 kts 266°
2026-05-07 20:49 52.31490 4.74716 -2 ft 10 kts 269°
2026-05-07 20:49 52.31493 4.74679 -2 ft 2 kts 296°
2026-05-07 20:50 52.31514 4.74665 -2 ft 4 kts 351°
2026-05-07 20:50 52.31555 4.74662 -2 ft 7 kts 357°
2026-05-07 20:50 52.31610 4.74659 0 ft 9 kts
2026-05-07 20:50 52.31667 4.74718 0 ft 13 kts 85°
2026-05-07 20:51 52.31672 4.74898 -4 ft 22 kts 86°
2026-05-07 20:51 52.31692 4.75430 -7 ft 79 kts 86°
2026-05-07 20:51 52.31734 4.76652 -2 ft 135 kts 86°
2026-05-07 20:51 52.31796 4.78369 348 ft 152 kts 84°
2026-05-07 20:52 52.31879 4.80080 1051 ft 150 kts 84°
2026-05-07 20:52 52.31947 4.81877 1456 ft 170 kts 87°
2026-05-07 20:52 52.32004 4.83929 1829 ft 191 kts 87°
2026-05-07 20:52 52.32068 4.86223 2165 ft 216 kts 88°
2026-05-07 20:53 52.31785 4.88756 2637 ft 242 kts 113°
2026-05-07 20:53 52.31015 4.91273 3537 ft 251 kts 117°
2026-05-07 20:53 52.30242 4.93859 4599 ft 256 kts 116°
2026-05-07 20:53 52.29514 4.96553 5584 ft 263 kts 110°
2026-05-07 20:54 52.28955 4.99387 6563 ft 269 kts 108°
2026-05-07 20:54 52.28438 5.02321 7496 ft 274 kts 106°
2026-05-07 20:54 52.27926 5.05348 8455 ft 279 kts 106°
2026-05-07 20:54 52.27408 5.08431 9406 ft 284 kts 107°
2026-05-07 20:55 52.26874 5.11563 10293 ft 290 kts 106°
2026-05-07 20:55 52.26306 5.14840 10678 ft 311 kts 106°
2026-05-07 20:55 52.25689 5.18369 10943 ft 335 kts 107°
2026-05-07 20:55 52.25019 5.22144 11143 ft 358 kts 108°
2026-05-07 20:56 52.24059 5.26027 11278 ft 380 kts 117°
2026-05-07 20:56 52.22672 5.29732 11493 ft 396 kts 126°
2026-05-07 20:56 52.21054 5.33397 12044 ft 402 kts 126°
2026-05-07 20:56 52.19415 5.37146 12668 ft 407 kts 126°
2026-05-07 20:57 52.17772 5.40929 13310 ft 411 kts 126°
2026-05-07 20:57 52.16119 5.44744 13949 ft 416 kts 126°
2026-05-07 20:57 52.14443 5.48601 14500 ft 419 kts 126°
2026-05-07 20:57 52.12748 5.52489 15056 ft 422 kts 126°
2026-05-07 20:58 52.11041 5.56394 15604 ft 425 kts 126°
2026-05-07 20:58 52.09314 5.60329 16141 ft 428 kts 126°
2026-05-07 20:58 52.07578 5.64282 16691 ft 431 kts 126°
2026-05-07 20:58 52.05791 5.68207 17208 ft 434 kts 130°
2026-05-07 20:59 52.03809 5.71935 17724 ft 436 kts 132°
2026-05-07 20:59 52.01811 5.75662 18209 ft 439 kts 132°
2026-05-07 20:59 51.99797 5.79407 18660 ft 442 kts 132°
2026-05-07 20:59 51.97776 5.83164 19081 ft 445 kts 132°
2026-05-07 21:00 51.95731 5.86966 19493 ft 448 kts 132°
2026-05-07 21:00 51.93683 5.90786 19888 ft 451 kts 132°
2026-05-07 21:00 51.91622 5.94637 20285 ft 454 kts 132°
2026-05-07 21:00 51.89575 5.98457 20652 ft 456 kts 132°
2026-05-07 21:01 51.87500 6.02325 21005 ft 459 kts 132°
2026-05-07 21:01 51.85400 6.06231 21351 ft 462 kts 132°
2026-05-07 21:01 51.83280 6.10155 21692 ft 464 kts 133°
2026-05-07 21:01 51.81148 6.14076 22018 ft 466 kts 133°
2026-05-07 21:02 51.79018 6.17968 22329 ft 469 kts 133°
2026-05-07 21:02 51.76846 6.21924 22644 ft 471 kts 133°
2026-05-07 21:02 51.74669 6.25887 22954 ft 473 kts 133°
2026-05-07 21:02 51.72506 6.29825 23260 ft 475 kts 133°
2026-05-07 21:03 51.70305 6.33834 23530 ft 478 kts 133°
2026-05-07 21:03 51.68138 6.37778 23776 ft 480 kts 133°
2026-05-07 21:03 51.65877 6.41881 24029 ft 482 kts 133°
2026-05-07 21:03 51.63648 6.45917 24277 ft 483 kts 133°
2026-05-07 21:04 51.61417 6.49947 24497 ft 485 kts 133°
2026-05-07 21:04 51.59206 6.53940 24727 ft 487 kts 133°
2026-05-07 21:04 51.56914 6.58081 24968 ft 488 kts 133°
2026-05-07 21:04 51.54661 6.62147 25206 ft 490 kts 133°
2026-05-07 21:05 51.52391 6.66236 25441 ft 491 kts 133°
2026-05-07 21:05 51.50107 6.70345 25683 ft 493 kts 133°
2026-05-07 21:05 51.47874 6.74353 25991 ft 493 kts 133°
2026-05-07 21:05 51.45632 6.78369 26435 ft 489 kts 133°
2026-05-07 21:06 51.43375 6.82405 27077 ft 483 kts 133°
2026-05-07 21:06 51.41304 6.86102 27536 ft 480 kts 133°
2026-05-07 21:06 51.38942 6.90044 27969 ft 478 kts 136°
2026-05-07 21:06 51.36595 6.93779 28410 ft 476 kts 137°
2026-05-07 21:07 51.34253 6.97411 28829 ft 475 kts 138°
2026-05-07 21:07 51.31951 7.00927 29257 ft 475 kts 138°
2026-05-07 21:07 51.29555 7.04573 29722 ft 474 kts 138°
2026-05-07 21:07 51.27218 7.08143 30187 ft 473 kts 138°
2026-05-07 21:08 51.25101 7.11391 30542 ft 472 kts 138°
2026-05-07 21:08 51.22786 7.14953 30920 ft 471 kts 138°
2026-05-07 21:08 51.21121 7.17517 31189 ft 470 kts 137°
2026-05-07 21:08 51.18768 7.21145 31575 ft 470 kts 137°
2026-05-07 21:09 51.17078 7.23751 31865 ft 469 kts 138°
2026-05-07 21:09 51.14643 7.27499 32293 ft 468 kts 138°
2026-05-07 21:09 51.12297 7.31104 32708 ft 468 kts 138°
2026-05-07 21:09 51.10125 7.34432 33092 ft 467 kts 138°
2026-05-07 21:10 51.07788 7.38005 33479 ft 467 kts 138°
2026-05-07 21:10 51.05450 7.41575 33881 ft 466 kts 138°
2026-05-07 21:10 51.03624 7.44358 34190 ft 466 kts 138°
2026-05-07 21:10 51.01628 7.47394 34438 ft 466 kts 138°
2026-05-07 21:11 50.99286 7.50952 34673 ft 466 kts 138°
2026-05-07 21:11 50.96978 7.54454 34907 ft 466 kts 138°
2026-05-07 21:11 50.92338 7.61469 35107 ft 466 kts 138°
2026-05-07 21:12 50.87637 7.68559 35101 ft 466 kts 138°
2026-05-07 21:12 50.82860 7.74936 35097 ft 463 kts 148°
2026-05-07 21:13 50.77296 7.79991 35091 ft 461 kts 155°
2026-05-07 21:13 50.71567 7.84583 35088 ft 461 kts 154°
2026-05-07 21:14 50.65966 7.89434 35086 ft 462 kts 152°
2026-05-07 21:14 50.60441 7.94553 35088 ft 462 kts 151°
2026-05-07 21:15 50.54898 7.99712 35084 ft 463 kts 152°
2026-05-07 21:15 50.49326 8.04792 35088 ft 463 kts 152°
2026-05-07 21:16 50.43729 8.09829 35093 ft 464 kts 152°
2026-05-07 21:16 50.38130 8.14861 35092 ft 464 kts 152°
2026-05-07 21:17 50.32570 8.19857 35080 ft 464 kts 152°
2026-05-07 21:17 50.26963 8.24888 35081 ft 465 kts 152°
2026-05-07 21:18 50.22336 8.29035 35075 ft 465 kts 152°
2026-05-07 21:18 50.16884 8.33897 35070 ft 466 kts 152°
2026-05-07 21:19 50.11135 8.39014 35066 ft 466 kts 152°
2026-05-07 21:19 50.05545 8.43974 35090 ft 466 kts 153°
2026-05-07 21:20 49.99948 8.48918 35093 ft 466 kts 153°
2026-05-07 21:20 49.94300 8.53909 35095 ft 466 kts 153°
2026-05-07 21:21 49.91508 8.56372 34782 ft 460 kts 153°
2026-05-07 21:21 49.88723 8.58821 34255 ft 458 kts 153°
2026-05-07 21:21 49.85951 8.61258 33561 ft 458 kts 153°
2026-05-07 21:21 49.83199 8.63678 32786 ft 459 kts 153°
2026-05-07 21:22 49.80495 8.66054 31992 ft 460 kts 152°
2026-05-07 21:22 49.77709 8.68499 31166 ft 461 kts 152°
2026-05-07 21:22 49.74911 8.70945 30320 ft 463 kts 152°
2026-05-07 21:22 49.72107 8.73389 29265 ft 464 kts 152°
2026-05-07 21:23 49.69403 8.75741 28264 ft 466 kts 152°
2026-05-07 21:23 49.66607 8.78172 27206 ft 467 kts 152°
2026-05-07 21:23 49.64145 8.80311 26237 ft 469 kts 152°
2026-05-07 21:23 49.61437 8.82660 25573 ft 461 kts 152°
2026-05-07 21:24 49.58648 8.85081 24705 ft 458 kts 152°
2026-05-07 21:24 49.56075 8.87311 23982 ft 454 kts 152°
2026-05-07 21:24 49.53333 8.89683 23159 ft 449 kts 153°
2026-05-07 21:24 49.50638 8.92012 22125 ft 441 kts 152°
2026-05-07 21:25 49.48027 8.94267 21095 ft 434 kts 152°
2026-05-07 21:25 49.45410 8.96524 20065 ft 428 kts 152°
2026-05-07 21:25 49.42834 8.98743 19043 ft 422 kts 152°
2026-05-07 21:25 49.40289 9.00934 18057 ft 417 kts 152°
2026-05-07 21:26 49.37822 9.03054 17054 ft 411 kts 152°
2026-05-07 21:26 49.35341 9.05180 16118 ft 405 kts 152°
2026-05-07 21:26 49.32896 9.07275 15225 ft 399 kts 152°
2026-05-07 21:26 49.30677 9.09176 14486 ft 391 kts 152°
2026-05-07 21:27 49.28358 9.11160 14096 ft 372 kts 152°
2026-05-07 21:27 49.26130 9.13062 13396 ft 362 kts 152°
2026-05-07 21:27 49.23977 9.14894 12579 ft 357 kts 152°
2026-05-07 21:27 49.21806 9.16739 11887 ft 355 kts 152°
2026-05-07 21:28 49.19665 9.18560 11406 ft 348 kts 152°
2026-05-07 21:28 49.17605 9.20310 11280 ft 331 kts 152°
2026-05-07 21:28 49.15635 9.21984 11151 ft 317 kts 152°
2026-05-07 21:28 49.13748 9.23590 11024 ft 304 kts 152°
2026-05-07 21:29 49.11930 9.25133 10842 ft 295 kts 153°
2026-05-07 21:29 49.10144 9.26645 10536 ft 292 kts 153°
2026-05-07 21:29 49.08374 9.28141 10194 ft 290 kts 153°
2026-05-07 21:29 49.06658 9.29595 9846 ft 289 kts 153°
2026-05-07 21:30 49.04904 9.31082 9468 ft 288 kts 153°
2026-05-07 21:30 49.03161 9.32559 9107 ft 286 kts 153°
2026-05-07 21:30 49.01425 9.34026 8742 ft 284 kts 153°
2026-05-07 21:30 48.99703 9.35478 8381 ft 283 kts 153°
2026-05-07 21:31 48.98001 9.36911 8027 ft 281 kts 153°
2026-05-07 21:31 48.96321 9.38321 7685 ft 280 kts 153°
2026-05-07 21:31 48.94654 9.39720 7349 ft 279 kts 153°
2026-05-07 21:31 48.92956 9.41145 7008 ft 277 kts 153°
2026-05-07 21:32 48.91268 9.42562 6664 ft 276 kts 152°
2026-05-07 21:32 48.89594 9.43969 6334 ft 274 kts 152°
2026-05-07 21:32 48.87929 9.45365 6000 ft 272 kts 152°
2026-05-07 21:32 48.86276 9.46747 5650 ft 271 kts 152°
2026-05-07 21:33 48.84644 9.48112 5356 ft 269 kts 152°
2026-05-07 21:33 48.83013 9.49479 5178 ft 266 kts 151°
2026-05-07 21:33 48.81401 9.50771 5014 ft 257 kts 154°
2026-05-07 21:33 48.79810 9.51920 4864 ft 249 kts 155°
2026-05-07 21:34 48.78278 9.52983 4699 ft 242 kts 156°
2026-05-07 21:34 48.76737 9.53746 4548 ft 232 kts 179°
2026-05-07 21:34 48.75353 9.53155 4430 ft 221 kts 217°
2026-05-07 21:34 48.74464 9.51369 4301 ft 211 kts 251°
2026-05-07 21:35 48.74056 9.49254 4179 ft 208 kts 255°
2026-05-07 21:35 48.73677 9.47163 4076 ft 204 kts 255°
2026-05-07 21:35 48.73298 9.45120 4022 ft 197 kts 255°
2026-05-07 21:35 48.72928 9.43137 3759 ft 192 kts 255°
2026-05-07 21:36 48.72570 9.41222 3511 ft 186 kts 255°
2026-05-07 21:36 48.72218 9.39362 3248 ft 181 kts 254°
2026-05-07 21:36 48.71856 9.37555 2985 ft 176 kts 253°
2026-05-07 21:36 48.71535 9.35812 2732 ft 167 kts 255°
2026-05-07 21:37 48.71234 9.34194 2545 ft 153 kts 254°
2026-05-07 21:37 48.70961 9.32681 2338 ft 148 kts 255°
2026-05-07 21:37 48.70679 9.31192 2172 ft 146 kts 254°
2026-05-07 21:37 48.70398 9.29737 1983 ft 146 kts 255°
2026-05-07 21:38 48.70126 9.28261 1772 ft 146 kts 256°
2026-05-07 21:38 48.69850 9.26802 1571 ft 142 kts 255°
2026-05-07 21:38 48.69585 9.25387 1380 ft 138 kts 256°
2026-05-07 21:38 48.69326 9.23995 1208 ft 136 kts 256°
2026-05-07 21:39 48.69093 9.22743 1222 ft 106 kts 254°
2026-05-07 21:39 48.68951 9.21970 1245 ft 44 kts 258°
2026-05-07 21:39 48.68962 9.21615 1261 ft 23 kts 284°
2026-05-07 21:39 48.68987 9.21480 1258 ft 3 kts 286°
2026-05-07 21:40 48.68988 9.21473 1260 ft 0 kts 287°
2026-05-07 21:40 48.68989 9.21471 1261 ft 1 kts 287°
2026-05-07 21:40 48.68993 9.21447 1260 ft 4 kts 286°
2026-05-07 21:40 48.69000 9.21411 1258 ft 4 kts 285°
2026-05-07 21:41 48.69003 9.21350 1260 ft 8 kts 261°
2026-05-07 21:41 48.68979 9.21225 1263 ft 17 kts 254°
2026-05-07 21:41 48.68940 9.21016 1268 ft 24 kts 254°
2026-05-07 21:41 48.68893 9.20768 1274 ft 25 kts 254°
2026-05-07 21:42 48.68844 9.20505 1281 ft 27 kts 254°
2026-05-07 21:42 48.68790 9.20229 1286 ft 28 kts 253°
2026-05-07 21:42 48.68769 9.19990 1293 ft 17 kts 303°
2026-05-07 21:42 48.68853 9.19890 1300 ft 14 kts 342°
2026-05-07 21:43 48.68884 9.19788 1305 ft 14 kts 252°
2026-05-07 21:43 48.68852 9.19622 1309 ft 19 kts 255°
2026-05-07 21:43 48.68815 9.19425 1313 ft 20 kts 254°
2026-05-07 21:43 48.68778 9.19310 1314 ft 7 kts 184°
2026-05-07 21:44 48.68729 9.19329 1313 ft 3 kts 163°
2026-05-07 21:44 48.68728 9.19329 1313 ft 0 kts 164°